Time,TemperatureF,DewpointF,PressureIn,WindDirection,WindDirectionDegrees,WindSpeedMPH,WindSpeedGustMPH,Humidity,HourlyPrecipIn,Conditions,Clouds,dailyrainin,SolarRadiationWatts/m^2,SoftwareType,DateUTC
2013-09-01 00:00:00,54.0,47.0,-100.00,SE,135,0.0,2.0,77,-99.99,,,0.01,0.000000,,2013-09-01 06:00:00,
2013-09-01 00:52:00,54.0,47.0,-100.00,SE,135,0.0,2.0,77,-99.99,,,0.01,0.000000,,2013-09-01 06:52:00,
2013-09-01 02:00:00,54.0,48.0,-100.00,ESE,120,0.0,2.0,80,-99.99,,,0.01,0.000000,,2013-09-01 08:00:00,
2013-09-01 02:52:00,54.0,48.0,-100.00,ESE,120,0.0,2.0,80,-99.99,,,0.01,0.000000,,2013-09-01 08:52:00,
2013-09-01 03:00:00,53.0,48.0,-100.00,North,10,0.0,1.0,84,-99.99,,,0.01,0.000000,,2013-09-01 09:00:00,
2013-09-01 03:53:00,53.0,48.0,-100.00,North,10,0.0,1.0,84,-99.99,,,0.01,0.000000,,2013-09-01 09:53:00,
2013-09-01 04:00:00,52.0,48.0,-100.00,SSE,160,0.0,1.0,87,-99.99,,,0.01,0.000000,,2013-09-01 10:00:00,
2013-09-01 04:53:00,52.0,48.0,-100.00,SSE,160,0.0,1.0,87,-99.99,,,0.01,0.000000,,2013-09-01 10:53:00,
2013-09-01 05:00:00,51.0,47.0,-100.00,SSW,203,0.0,1.0,88,-99.99,,,0.01,0.000000,,2013-09-01 11:00:00,
2013-09-01 05:52:00,51.0,47.0,-100.00,SSW,203,0.0,1.0,88,-99.99,,,0.01,0.000000,,2013-09-01 11:52:00,
2013-09-01 06:00:00,51.0,47.0,-100.00,SSE,160,0.0,1.0,87,-99.99,,,0.01,0.000000,,2013-09-01 12:00:00,
2013-09-01 06:52:00,51.0,47.0,-100.00,SSE,160,0.0,1.0,87,-99.99,,,0.01,0.000000,,2013-09-01 12:52:00,
2013-09-01 08:00:00,52.0,49.0,-100.00,SSE,165,0.0,1.0,87,-99.99,,,0.01,23.799999,,2013-09-01 14:00:00,
2013-09-01 08:52:00,52.0,49.0,-100.00,SSE,165,0.0,1.0,87,-99.99,,,0.01,23.799999,,2013-09-01 14:52:00,
2013-09-01 09:00:00,59.0,54.0,-100.00,WNW,291,0.0,1.0,84,-99.99,,,0.01,163.300003,,2013-09-01 15:00:00,
2013-09-01 09:55:00,59.0,54.0,-100.00,WNW,291,0.0,1.0,84,-99.99,,,0.01,163.300003,,2013-09-01 15:55:00,
2013-09-01 10:00:00,61.0,50.0,-100.00,NNE,23,0.0,3.0,67,-99.99,,,0.01,207.300003,,2013-09-01 16:00:00,
2013-09-01 10:53:00,61.0,50.0,-100.00,NNE,23,0.0,3.0,67,-99.99,,,0.01,207.300003,,2013-09-01 16:53:00,
2013-09-01 11:00:00,63.0,49.0,-100.00,ENE,71,0.0,3.0,61,-99.99,,,0.01,148.100006,,2013-09-01 17:00:00,
2013-09-01 11:52:00,63.0,49.0,-100.00,ENE,71,0.0,3.0,61,-99.99,,,0.01,148.100006,,2013-09-01 17:52:00,
2013-09-01 12:00:00,66.0,49.0,-100.00,NE,40,0.0,4.0,54,-99.99,,,0.01,290.000000,,2013-09-01 18:00:00,
2013-09-01 12:52:00,66.0,49.0,-100.00,NE,40,0.0,4.0,54,-99.99,,,0.01,290.000000,,2013-09-01 18:52:00,
2013-09-01 13:00:00,71.0,50.0,-100.00,East,84,1.0,6.0,47,-99.99,,,0.01,749.700012,,2013-09-01 19:00:00,
2013-09-01 13:52:00,71.0,50.0,-100.00,East,84,1.0,6.0,47,-99.99,,,0.01,749.700012,,2013-09-01 19:52:00,
2013-09-01 14:00:00,67.0,44.0,-100.00,South,186,2.0,8.0,44,-99.99,,,0.00,364.500000,,2013-09-01 20:00:00,
2013-09-01 14:52:00,67.0,44.0,-100.00,South,186,2.0,8.0,44,-99.99,,,0.00,364.500000,,2013-09-01 20:52:00,
2013-09-01 16:00:00,62.0,55.0,-100.00,East,92,2.0,8.0,78,-99.99,,,0.00,353.500000,,2013-09-01 22:00:00,
2013-09-01 16:53:00,62.0,55.0,-100.00,East,92,2.0,8.0,78,-99.99,,,0.00,353.500000,,2013-09-01 22:53:00,
2013-09-01 17:00:00,62.0,51.0,-100.00,East,97,1.0,7.0,66,-99.99,,,0.00,108.099998,,2013-09-01 23:00:00,
2013-09-01 17:53:00,62.0,51.0,-100.00,East,97,1.0,7.0,66,-99.99,,,0.00,108.099998,,2013-09-01 23:53:00,
2013-09-01 20:00:00,58.0,48.0,-100.00,East,83,1.0,5.0,71,-99.99,,,0.00,8.900000,,2013-09-02 02:00:00,
2013-09-01 20:52:00,58.0,48.0,-100.00,East,83,1.0,5.0,71,-99.99,,,0.00,8.900000,,2013-09-02 02:52:00,
2013-09-01 22:00:00,55.0,49.0,-100.00,NNE,20,1.0,5.0,79,-99.99,,,0.00,0.000000,,2013-09-02 04:00:00,
2013-09-01 22:54:00,55.0,49.0,-100.00,NNE,20,1.0,5.0,79,-99.99,,,0.00,0.000000,,2013-09-02 04:54:00,
2013-09-01 23:00:00,54.0,48.0,-100.00,NE,52,1.0,5.0,81,-99.99,,,0.00,0.000000,,2013-09-02 05:00:00,
2013-09-01 23:52:00,54.0,48.0,-100.00,NE,52,1.0,5.0,81,-99.99,,,0.00,0.000000,,2013-09-02 05:52:00,